User: anonymous
Location: El Centro
(32.7920°N, 115.5620°W)
Time: 18:42:40
(UTC-07:00)
Language:

Hamsat - Orbit

View from above orbital plane
View from above orbital plane
View from above satellite
View from above satellite

Ground track
Ground track

The orbit data is extracted from the following two-line orbital elements,

1 28650U 05017B   14212.60890898  .00001399  00000-0  16666-3 0  8058
2 28650 097.5613 215.3579 0024986 015.4485 344.7488 14.85613804499822
Epoch (UTC): 31 July 2014 14:36:49
Eccentricity: 0.0024986
inclination: 97.5613°
perigee height: 594 km
apogee height: 629 km
right ascension of ascending node: 215.3579°
argument of perigee: 15.4485°
revolutions per day: 14.85613804
mean anomaly at epoch: 344.7488°
orbit number at epoch: 49982

The dashed part of the orbit path shows where the satellite is in the earth's shadow,  

DLR